TimeEDT,TemperatureF,Dew PointF,Humidity,Sea Level PressureIn,VisibilityMPH,Wind Direction,Wind SpeedMPH,Gust SpeedMPH,PrecipitationIn,Events,Conditions,WindDirDegrees,DateUTC
12:15 AM,41.0,28.4,61,30.38,10.0,Calm,Calm,-,N/A,,Clear,0,2013-04-04 04:15:00
12:35 AM,39.2,28.4,65,30.39,10.0,Calm,Calm,-,N/A,,Clear,0,2013-04-04 04:35:00
12:55 AM,39.2,24.8,56,30.40,10.0,Calm,Calm,-,N/A,,Clear,0,2013-04-04 04:55:00
1:15 AM,39.2,24.8,56,30.39,10.0,Calm,Calm,-,N/A,,Clear,0,2013-04-04 05:15:00
1:35 AM,39.2,26.6,61,30.40,10.0,NNE,4.6,-,N/A,,Clear,20,2013-04-04 05:35:00
1:55 AM,37.4,26.6,65,30.40,10.0,Calm,Calm,-,N/A,,Clear,0,2013-04-04 05:55:00
2:15 AM,37.4,24.8,60,30.40,10.0,Calm,Calm,-,N/A,,Clear,0,2013-04-04 06:15:00
2:35 AM,37.4,24.8,60,30.40,10.0,Calm,Calm,-,N/A,,Clear,0,2013-04-04 06:35:00
2:55 AM,37.4,21.2,52,30.39,10.0,North,4.6,-,N/A,,Clear,10,2013-04-04 06:55:00
3:15 AM,35.6,21.2,56,30.39,10.0,NNE,4.6,-,N/A,,Clear,30,2013-04-04 07:15:00
3:35 AM,35.6,21.2,56,30.38,10.0,NNE,4.6,-,N/A,,Clear,30,2013-04-04 07:35:00
3:55 AM,35.6,21.2,56,30.38,10.0,NNE,6.9,-,N/A,,Clear,20,2013-04-04 07:55:00
4:15 AM,35.6,21.2,56,30.38,10.0,NNE,5.8,-,N/A,,Clear,20,2013-04-04 08:15:00
4:35 AM,35.6,21.2,56,30.39,10.0,NNE,4.6,-,N/A,,Clear,30,2013-04-04 08:35:00
4:55 AM,35.6,21.2,56,30.38,10.0,NNE,3.5,-,N/A,,Clear,30,2013-04-04 08:55:00
5:15 AM,33.8,21.2,60,30.38,10.0,NNE,5.8,-,N/A,,Clear,30,2013-04-04 09:15:00
5:35 AM,33.8,21.2,60,30.38,10.0,NNE,4.6,-,N/A,,Clear,30,2013-04-04 09:35:00
5:55 AM,33.8,21.2,60,30.39,10.0,NNE,3.5,-,N/A,,Clear,20,2013-04-04 09:55:00
6:15 AM,33.8,21.2,60,30.40,10.0,Calm,Calm,-,N/A,,Clear,0,2013-04-04 10:15:00
6:35 AM,33.8,23.0,65,30.40,10.0,Calm,Calm,-,N/A,,Clear,0,2013-04-04 10:35:00
6:55 AM,33.8,23.0,65,30.40,10.0,ENE,3.5,-,N/A,,Clear,60,2013-04-04 10:55:00
7:15 AM,33.8,24.8,70,30.41,10.0,NE,3.5,-,N/A,,Clear,50,2013-04-04 11:15:00
7:35 AM,35.6,26.6,70,30.42,10.0,NE,3.5,-,N/A,,Clear,50,2013-04-04 11:35:00
7:55 AM,37.4,24.8,60,30.43,10.0,Calm,Calm,-,N/A,,Clear,0,2013-04-04 11:55:00
8:15 AM,39.2,24.8,56,30.43,10.0,NE,4.6,-,N/A,,Clear,50,2013-04-04 12:15:00
8:35 AM,39.2,26.6,61,30.43,10.0,Calm,Calm,-,N/A,,Clear,0,2013-04-04 12:35:00
8:55 AM,42.8,26.6,53,30.42,10.0,Calm,Calm,-,N/A,,Clear,0,2013-04-04 12:55:00
9:15 AM,42.8,24.8,49,30.42,10.0,ENE,4.6,-,N/A,,Clear,70,2013-04-04 13:15:00
9:35 AM,44.6,24.8,46,30.43,10.0,ESE,4.6,-,N/A,,Clear,110,2013-04-04 13:35:00
9:55 AM,44.6,24.8,46,30.42,10.0,East,5.8,-,N/A,,Clear,80,2013-04-04 13:55:00
10:15 AM,46.4,24.8,43,30.42,10.0,SE,4.6,-,N/A,,Clear,130,2013-04-04 14:15:00
10:35 AM,46.4,24.8,43,30.41,10.0,East,8.1,-,N/A,,Clear,100,2013-04-04 14:35:00
10:55 AM,46.4,24.8,43,30.41,10.0,SE,3.5,-,N/A,,Clear,130,2013-04-04 14:55:00
11:15 AM,48.2,24.8,40,30.40,10.0,ENE,3.5,-,N/A,,Clear,70,2013-04-04 15:15:00
11:35 AM,48.2,24.8,40,30.39,10.0,ENE,3.5,-,N/A,,Clear,70,2013-04-04 15:35:00
11:55 AM,48.2,23.0,37,30.38,10.0,East,4.6,-,N/A,,Clear,90,2013-04-04 15:55:00
12:35 PM,48.2,21.2,34,30.36,10.0,East,6.9,-,N/A,,Clear,80,2013-04-04 16:35:00
12:55 PM,51.8,21.2,30,30.34,10.0,East,4.6,-,N/A,,Clear,90,2013-04-04 16:55:00
1:15 PM,50.0,17.6,28,30.33,10.0,East,8.1,-,N/A,,Clear,80,2013-04-04 17:15:00
1:35 PM,53.6,23.0,30,30.33,10.0,East,8.1,-,N/A,,Clear,100,2013-04-04 17:35:00
1:55 PM,51.8,24.8,35,30.31,10.0,SE,11.5,-,N/A,,Clear,130,2013-04-04 17:55:00
2:15 PM,48.2,24.8,40,30.31,-9999.0,South,11.5,-,N/A,,Clear,170,2013-04-04 18:15:00
2:35 PM,51.8,26.6,38,30.29,10.0,SE,8.1,-,N/A,,Clear,140,2013-04-04 18:35:00
2:55 PM,53.6,26.6,35,30.28,10.0,SSE,9.2,-,N/A,,Clear,160,2013-04-04 18:55:00
3:15 PM,51.8,26.6,38,30.26,10.0,SSE,10.4,-,N/A,,Clear,150,2013-04-04 19:15:00
3:35 PM,50.0,26.6,40,30.25,10.0,SE,4.6,-,N/A,,Clear,140,2013-04-04 19:35:00
3:55 PM,50.0,30.2,47,30.25,10.0,ENE,4.6,-,N/A,,Clear,70,2013-04-04 19:55:00
4:15 PM,48.2,30.2,50,30.26,10.0,East,5.8,-,N/A,,Clear,80,2013-04-04 20:15:00
4:35 PM,48.2,30.2,50,30.27,10.0,ENE,4.6,-,N/A,,Clear,60,2013-04-04 20:35:00
4:55 PM,48.2,30.2,50,30.26,10.0,Calm,Calm,-,N/A,,Clear,0,2013-04-04 20:55:00
5:15 PM,46.4,30.2,53,30.25,10.0,ENE,4.6,-,N/A,,Clear,60,2013-04-04 21:15:00
5:35 PM,46.4,28.4,50,30.24,10.0,ESE,8.1,-,N/A,,Scattered Clouds,110,2013-04-04 21:35:00
5:55 PM,46.4,30.2,53,30.25,10.0,East,4.6,-,N/A,,Scattered Clouds,100,2013-04-04 21:55:00
6:15 PM,44.6,30.2,57,30.25,10.0,SE,6.9,-,N/A,,Mostly Cloudy,130,2013-04-04 22:15:00
6:35 PM,42.8,33.8,70,30.24,5.0,SE,9.2,-,N/A,,Overcast,140,2013-04-04 22:35:00
6:55 PM,41.0,37.4,87,30.22,5.0,East,4.6,-,0.01,,Overcast,100,2013-04-04 22:55:00
7:15 PM,41.0,37.4,87,30.20,7.0,East,5.8,-,0.01,,Overcast,100,2013-04-04 23:15:00
7:35 PM,41.0,37.4,87,30.20,7.0,ESE,3.5,-,0.02,,Overcast,110,2013-04-04 23:35:00
7:55 PM,39.2,37.4,93,30.18,7.0,Calm,Calm,-,0.03,,Overcast,0,2013-04-04 23:55:00
8:15 PM,39.2,37.4,93,30.17,5.0,Calm,Calm,-,0.01,,Overcast,0,2013-04-05 00:15:00
8:35 PM,41.0,37.4,87,30.17,7.0,Calm,Calm,-,0.03,,Overcast,0,2013-04-05 00:35:00
8:55 PM,41.0,37.4,87,30.16,3.0,Calm,Calm,-,0.05,,Overcast,0,2013-04-05 00:55:00
9:15 PM,41.0,39.2,93,30.16,7.0,ENE,3.5,-,0.01,,Overcast,70,2013-04-05 01:15:00
9:35 PM,41.0,39.2,93,30.15,5.0,Calm,Calm,-,0.01,,Overcast,0,2013-04-05 01:35:00
9:55 PM,41.0,39.2,93,30.14,5.0,NE,4.6,-,0.01,,Overcast,40,2013-04-05 01:55:00
10:15 PM,41.0,39.2,93,30.13,2.5,Calm,Calm,-,0.02,,Overcast,0,2013-04-05 02:15:00
10:35 PM,41.0,39.2,93,30.11,3.0,NE,4.6,-,0.04,,Overcast,50,2013-04-05 02:35:00
10:55 PM,39.2,39.2,100,30.09,3.0,ENE,6.9,-,0.07,,Overcast,70,2013-04-05 02:55:00
11:15 PM,39.2,37.4,93,30.09,2.5,NNE,4.6,-,0.05,,Overcast,30,2013-04-05 03:15:00
11:35 PM,39.2,39.2,100,30.05,2.0,NE,6.9,-,0.10,,Overcast,50,2013-04-05 03:35:00
11:55 PM,39.2,37.4,93,30.06,4.0,NE,6.9,-,0.12,,Overcast,40,2013-04-05 03:55:00